Temp
21 18 18 19 19 20 22 22 22 20 22 20 19 17 18 20 21 20 20 21 20 20 21 21 21 20 20 20 20 20 19 19 19 19 19 19 19 18 18 18 18 18 18 18
18 18 20 21 20 21 22 22 18 19 19 19 18 18 17 18 18 20 18 20 21 20 21 21 21 20 20 20 20 20 19 20 19 19 19 19 19 18 18 18 18 18 19 19
18 21 21 22 21 22 21 21 21 19 20 20 19 18 18 18 18 18 19 18 20 20 20 21 21 21 20 20 20 20 20 20 19 19 19 19 18 18 18 18 18 18 18 19
20 21 22 21 21 21 21 22 23 20 19 19 19 19 17 17 17 18 18 18 20 20 20 21 21 20 21 21 21 21 20 20 19 19 19 19 19 19 19 19 19 18 18 19
20 22 21 21 21 22 21 24 23 20 18 17 18 18 17 17 17 18 18 19 19 19 19 21 22 22 22 22 21 21 20 19 19 19 19 19 19 19 19 19 18 18 18 18
20 23 22 21 23 22 22 20 17 16 16 18 18 20 17 18 18 19 19 19 18 18 19 19 20 21 22 22 21 21 20 19 19 19 19 19 19 19 19 19 19 18 18 18
19 21 22 23 22 23 21 17 15 18 17 17 17 18 19 18 18 19 19 18 17 19 19 19 19 20 21 22 21 21 20 19 19 19 19 19 19 19 19 19 19 19 18 18
18 19 22 23 22 21 18 18 17 19 17 18 17 19 17 16 16 19 19 18 17 17 18 19 19 19 20 22 22 21 20 20 19 19 19 19 19 19 19 19 19 19 19 19
17 19 22 23 24 22 22 21 20 18 19 19 17 18 18 16 16 15 16 16 16 17 17 18 18 19 19 20 21 22 21 20 19 19 19 19 19 19 19 19 19 19 19 19
19 19 21 21 24 23 21 20 20 17 19 22 18 18 18 16 16 16 15 15 16 17 17 18 19 20 19 20 20 20 20 20 20 19 19 19 19 19 20 20 19 19 19 19
17 17 19 20 20 21 21 20 17 17 17 19 18 17 16 16 15 15 15 15 16 16 16 16 16 18 17 19 20 20 20 19 19 19 19 19 19 19 19 19 20 20 19 19
17 13 16 20 19 18 21 20 18 18 20 15 15 17 15 16 15 14 14 15 15 15 15 15 16 16 17 18 19 20 19 19 19 19 19 19 19 19 19 19 19 19 20 20
18 14 15 18 17 17 17 18 17 15 17 17 17 17 14 15 15 15 15 15 14 15 15 15 15 16 16 18 19 19 18 18 19 18 19 19 19 19 19 19 19 19 19 19
17 12 14 14 17 16 17 18 20 17 17 15 17 16 14 14 14 14 14 14 14 14 15 15 15 15 16 16 19 18 16 16 17 19 18 18 19 19 20 19 19 19 19 18
14 15 15 14 15 18 18 19 19 18 18 19 16 16 15 14 14 14 13 14 13 13 14 14 14 15 15 15 16 16 16 15 15 17 17 17 17 19 19 19 19 19 19 19
12 14 17 16 16 18 18 18 18 17 16 15 16 16 15 14 14 14 13 13 13 13 12 13 13 14 14 15 15 14 14 15 14 16 15 16 16 16 17 19 19 19 19 19
14 12 13 16 16 17 16 17 16 18 17 16 16 16 15 14 14 14 14 13 13 13 12 13 13 13 13 13 13 13 14 14 14 15 15 16 15 15 17 18 19 18 19 18
13 12 10 13 15 15 17 18 18 16 15 15 14 15 15 14 14 14 14 14 13 13 13 13 13 12 12 12 12 12 12 13 14 14 15 15 15 15 16 17 18 18 17 17
11 10 10 11 11 15 18 18 17 15 14 15 15 15 15 15 15 14 14 14 14 13 13 13 13 13 12 12 12 12 13 13 13 13 13 13 13 14 15 16 17 17 17 16
10 8 11 10 14 13 14 18 17 16 14 14 15 14 14 15 13 12 14 14 13 14 13 13 13 13 13 12 12 13 13 13 14 14 14 14 13 13 14 14 13 14 14 14
9 8 10 10 12 14 17 16 16 16 14 15 14 14 14 14 14 13 14 14 15 14 13 13 13 13 13 13 13 13 13 14 14 14 14 14 14 15 15 15 15 15 15 14
11 9 9 8 12 14 15 16 17 14 14 14 14 14 14 14 14 13 13 13 14 13 13 13 13 13 12 12 12 13 13 13 13 13 13 14 14 14 14 14 14 14 14 14
10 9 9 9 9 12 13 14 14 14 13 13 14 14 14 14 13 13 13 13 13 13 13 12 13 13 12 11 12 12 12 12 12 12 13 13 13 13 13 13 13 13 13 13
10 10 9 10 12 12 14 14 14 15 15 14 15 14 13 13 13 12 13 13 13 12 12 12 12 12 12 11 11 11 11 11 11 11 11 11 11 11 11 11 12 12 12 13
9 10 8 8 11 13 14 14 15 15 15 14 14 14 13 13 13 13 13 12 12 12 12 12 11 11 11 10 10 10 10 10 10 10 10 10 10 10 10 10 10 10 9 10
9 8 8 8 11 11 11 14 14 15 14 14 14 13 13 13 13 12 12 12 12 12 11 11 11 10 10 9 9 9 9 9 9 9 9 8 8 8 9 10 10 8 8 9
Height
1495 1502 1510 1508 1508 1509 1510 1513 1513 1512 1509 1517 1521 1529 1526 1528 1533 1538 1540 1541 1544 1546 1551 1557 1560 1564 1566 1569 1572 1574 1577 1580 1582 1583 1585 1587 1589 1592 1594 1596 1599 1600 1603 1605
1499 1506 1497 1499 1504 1508 1510 1512 1521 1517 1515 1517 1527 1529 1530 1531 1533 1534 1536 1541 1545 1548 1552 1555 1560 1563 1565 1567 1570 1574 1577 1578 1581 1584 1586 1589 1590 1592 1594 1595 1597 1599 1602 1604
1502 1496 1493 1498 1503 1508 1509 1513 1514 1519 1518 1518 1525 1536 1531 1529 1532 1538 1540 1544 1545 1547 1549 1554 1558 1561 1564 1566 1569 1572 1576 1578 1581 1583 1586 1588 1590 1592 1593 1594 1596 1598 1600 1603
1495 1490 1493 1498 1504 1505 1515 1498 1500 1512 1521 1534 1523 1543 1535 1532 1533 1535 1538 1542 1545 1547 1550 1551 1556 1559 1561 1564 1568 1571 1574 1577 1580 1582 1585 1587 1589 1592 1593 1594 1596 1598 1599 1601
1497 1490 1494 1498 1497 1497 1503 1493 1497 1508 1522 1528 1531 1538 1534 1530 1535 1531 1532 1539 1544 1547 1550 1549 1552 1554 1559 1563 1566 1570 1573 1577 1579 1582 1584 1586 1589 1592 1593 1595 1596 1597 1599 1601
1489 1485 1486 1487 1484 1490 1493 1501 1508 1518 1527 1539 1525 1527 1531 1525 1524 1528 1532 1538 1541 1547 1550 1552 1554 1555 1557 1562 1566 1569 1572 1575 1578 1581 1584 1586 1588 1590 1593 1594 1596 1597 1599 1601
1491 1484 1478 1478 1486 1486 1492 1511 1541 1541 1547 1546 1522 1530 1521 1520 1517 1521 1525 1530 1539 1545 1547 1551 1553 1556 1558 1559 1563 1568 1570 1574 1577 1580 1583 1585 1588 1590 1592 1594 1596 1597 1599 1600
1505 1506 1479 1473 1479 1489 1496 1499 1527 1539 1548 1538 1527 1532 1526 1520 1517 1518 1524 1534 1537 1544 1546 1548 1551 1554 1556 1560 1560 1565 1569 1572 1576 1579 1582 1585 1587 1589 1591 1593 1595 1597 1599 1601
1504 1498 1475 1472 1470 1474 1487 1498 1488 1515 1515 1526 1529 1525 1523 1523 1523 1522 1526 1531 1536 1539 1545 1547 1550 1551 1556 1559 1560 1562 1566 1571 1575 1579 1582 1584 1586 1587 1590 1591 1593 1596 1598 1601
1489 1500 1479 1473 1468 1471 1475 1477 1503 1512 1530 1524 1530 1526 1524 1525 1524 1524 1527 1530 1533 1537 1540 1542 1544 1545 1552 1557 1559 1562 1565 1569 1573 1577 1580 1582 1585 1587 1588 1589 1592 1595 1597 1599
1490 1497 1489 1478 1483 1484 1482 1486 1494 1500 1514 1524 1535 1532 1522 1522 1524 1525 1527 1530 1533 1536 1538 1540 1536 1540 1549 1554 1556 1559 1564 1568 1571 1575 1579 1581 1583 1585 1587 1589 1591 1593 1596 1598
1490 1504 1505 1489 1480 1479 1478 1483 1487 1506 1511 1523 1531 1528 1520 1519 1523 1523 1525 1527 1532 1536 1535 1537 1538 1538 1546 1548 1552 1558 1562 1566 1570 1574 1577 1580 1582 1585 1586 1587 1590 1592 1594 1596
1489 1508 1516 1501 1495 1485 1492 1488 1489 1494 1496 1515 1527 1529 1523 1522 1522 1522 1524 1527 1530 1531 1532 1536 1537 1531 1542 1547 1551 1552 1559 1564 1568 1571 1574 1577 1579 1581 1584 1586 1587 1590 1592 1594
1483 1510 1511 1523 1512 1505 1503 1492 1485 1493 1504 1514 1513 1519 1524 1522 1522 1524 1526 1529 1532 1532 1534 1536 1534 1536 1537 1541 1545 1546 1557 1560 1559 1566 1570 1575 1575 1576 1579 1582 1584 1585 1587 1591
1489 1506 1505 1507 1503 1498 1495 1490 1487 1491 1491 1498 1508 1510 1514 1519 1521 1524 1527 1530 1534 1534 1535 1536 1536 1537 1540 1543 1548 1552 1557 1550 1560 1567 1570 1572 1573 1572 1575 1578 1580 1582 1584 1586
1492 1507 1500 1504 1500 1496 1495 1490 1489 1487 1492 1498 1503 1512 1515 1519 1523 1525 1527 1531 1533 1534 1534 1535 1537 1539 1540 1543 1547 1552 1555 1559 1563 1568 1572 1572 1571 1570 1571 1573 1576 1578 1580 1582
1496 1504 1509 1512 1504 1500 1514 1500 1497 1490 1489 1492 1506 1503 1513 1520 1523 1525 1527 1530 1535 1537 1536 1537 1540 1541 1541 1544 1547 1551 1555 1560 1565 1568 1569 1568 1567 1569 1569 1569 1572 1574 1575 1577
1498 1504 1514 1519 1509 1527 1506 1493 1492 1497 1497 1497 1498 1504 1511 1515 1522 1527 1530 1528 1533 1538 1541 1542 1545 1547 1549 1550 1553 1556 1558 1560 1562 1564 1564 1564 1566 1566 1566 1568 1569 1570 1572 1573
1492 1505 1520 1527 1529 1514 1502 1498 1504 1508 1504 1499 1502 1509 1514 1519 1525 1532 1535 1534 1531 1538 1543 1546 1549 1551 1553 1555 1558 1560 1561 1563 1563 1564 1565 1565 1567 1567 1566 1566 1568 1569 1570 1571
1498 1502 1514 1525 1522 1526 1510 1494 1500 1504 1514 1503 1505 1507 1512 1518 1527 1530 1533 1536 1539 1540 1544 1547 1551 1554 1557 1559 1560 1562 1562 1562 1562 1564 1565 1566 1568 1569 1567 1569 1570 1570 1570 1571
1516 1519 1522 1526 1523 1513 1500 1499 1500 1513 1514 1498 1501 1508 1513 1518 1522 1528 1533 1536 1538 1542 1547 1550 1553 1557 1559 1561 1562 1563 1562 1564 1564 1567 1567 1567 1568 1568 1566 1568 1568 1568 1568 1568
1515 1524 1526 1529 1523 1519 1502 1500 1504 1505 1499 1502 1506 1507 1512 1520 1525 1530 1534 1538 1540 1543 1548 1551 1554 1557 1559 1560 1560 1561 1562 1563 1564 1565 1565 1564 1565 1566 1567 1567 1569 1569 1570 1571
1521 1516 1519 1522 1522 1508 1505 1503 1501 1499 1496 1500 1505 1509 1513 1518 1526 1531 1536 1539 1543 1546 1549 1553 1555 1556 1557 1558 1559 1560 1560 1560 1561 1561 1562 1562 1563 1564 1566 1567 1568 1568 1569 1569
1510 1509 1514 1516 1511 1509 1506 1504 1503 1503 1499 1503 1506 1511 1518 1521 1528 1533 1538 1541 1544 1548 1549 1551 1553 1554 1556 1557 1558 1557 1558 1559 1559 1560 1561 1562 1563 1563 1566 1565 1566 1566 1565 1565
1510 1508 1514 1516 1512 1510 1508 1507 1507 1507 1508 1510 1514 1515 1519 1522 1529 1532 1535 1538 1542 1545 1548 1552 1554 1556 1557 1558 1558 1558 1558 1559 1559 1559 1560 1561 1561 1563 1565 1564 1565 1564 1564 1563
1508 1508 1514 1516 1508 1510 1511 1510 1510 1509 1511 1514 1516 1520 1523 1526 1529 1533 1538 1541 1543 1546 1549 1552 1554 1555 1557 1558 1559 1559 1560 1560 1561 1561 1561 1561 1562 1562 1562 1562 1563 1562 1561 1561
Wind_Speed
4 4 5 6 5 4 1 2 3 4 4 4 6 4 9 13 22 19 16 18 29 36 37 34 31 27 22 18 15 18 19 15 14 13 19 15 16 15 14 15 15 14 15 12
6 3 6 4 7 4 4 2 3 4 3 4 3 4 1 2 9 28 28 9 23 26 33 36 34 30 24 19 17 17 13 17 17 12 13 12 14 14 14 13 13 15 16 16
5 4 6 4 1 2 3 4 5 5 8 9 11 1 4 2 10 23 28 14 7 27 38 37 35 32 26 22 18 15 14 16 17 13 15 14 14 12 13 16 12 12 14 16
4 4 3 4 4 6 3 8 9 12 4 5 1 1 5 4 5 21 33 26 8 24 37 39 36 33 27 22 19 15 17 15 18 16 15 13 12 12 11 12 11 11 14 15
6 2 3 5 8 7 8 5 7 6 4 6 0 4 4 10 9 15 25 33 16 7 31 43 40 35 27 22 20 17 20 18 19 18 13 14 11 11 11 12 12 13 15 13
7 8 5 8 6 8 8 9 10 6 3 1 8 6 4 13 14 17 25 26 22 4 23 30 35 37 31 26 25 20 23 22 21 23 17 12 13 13 15 14 13 14 15 12
6 4 4 6 3 2 5 5 3 3 2 5 5 4 2 9 11 20 27 38 32 12 10 20 29 35 37 30 27 24 24 25 23 25 20 16 14 13 12 13 13 15 15 13
2 6 5 4 8 8 9 9 6 6 5 3 1 4 3 5 12 15 22 28 28 19 7 13 16 31 37 33 28 27 24 26 25 25 20 16 13 16 13 11 14 15 13 11
4 5 3 4 4 8 5 4 6 7 1 3 3 3 5 9 10 17 19 18 19 23 12 15 17 23 35 38 34 28 25 24 24 26 21 16 12 12 12 15 13 13 14 13
2 3 1 6 1 3 8 6 2 3 5 3 1 3 5 9 11 12 12 16 13 14 12 16 25 29 27 38 36 33 26 23 25 27 22 18 15 13 10 16 14 15 13 13
2 1 6 3 4 1 4 2 6 6 2 5 3 3 3 5 10 10 13 15 13 14 12 16 23 27 35 35 35 33 24 23 25 27 22 19 17 16 13 16 16 14 12 11
2 3 3 5 6 5 1 1 3 5 3 3 4 1 9 11 10 16 16 17 13 12 10 12 11 33 29 31 37 29 23 22 26 25 23 21 19 18 18 18 17 14 12 13
2 2 3 7 7 7 6 5 3 4 2 3 6 2 1 7 10 12 15 15 12 10 8 11 10 23 27 24 21 18 23 27 28 24 20 20 20 22 21 19 17 17 14 13
9 3 4 5 5 3 6 5 2 3 3 6 3 9 7 8 7 10 13 14 14 13 11 10 13 14 16 18 12 17 24 27 25 13 14 20 20 22 25 24 20 18 17 16
4 5 4 4 5 2 4 5 6 6 5 6 11 19 16 13 10 14 15 15 12 14 14 13 11 16 18 19 20 21 21 22 11 22 19 15 14 18 22 24 21 18 19 19
3 2 1 1 5 8 5 10 8 5 9 8 18 9 8 20 21 19 20 17 13 14 16 17 14 12 15 16 17 17 15 18 18 15 14 11 7 6 10 20 17 16 17 19
3 3 3 1 3 5 6 8 7 2 4 17 10 10 23 16 21 22 23 23 21 18 20 20 19 19 19 18 18 17 17 16 14 11 9 7 7 6 5 4 9 13 16 19
4 3 3 1 5 4 7 6 3 6 7 2 8 19 21 25 23 23 25 32 28 26 22 21 21 22 23 22 20 20 18 16 13 10 6 4 3 3 7 9 8 7 10 19
4 4 4 4 3 3 3 3 5 5 5 3 15 17 22 25 22 15 19 29 32 28 24 21 19 17 16 16 17 15 14 12 11 11 9 8 7 4 2 2 7 6 9 8
6 7 4 2 3 6 6 5 10 4 3 4 22 22 26 30 9 6 27 30 29 26 23 20 16 14 12 11 8 6 8 7 7 6 5 5 4 4 5 5 3 2 2 1
4 3 4 2 2 4 2 8 12 4 6 20 28 27 27 13 8 29 37 34 27 24 23 18 14 12 10 8 5 3 3 2 2 0 1 1 2 2 1 2 2 2 3 1
3 4 2 2 2 2 9 3 2 4 1 18 23 29 29 16 27 40 40 36 30 27 22 17 15 11 8 5 2 1 2 2 4 5 5 5 5 7 6 6 6 5 5 4
2 4 5 5 5 6 8 3 4 4 9 23 26 27 30 26 41 38 37 34 28 24 20 15 11 9 5 1 2 3 3 5 6 7 7 7 7 8 9 8 8 7 8 8
3 2 3 3 3 7 7 9 10 7 13 21 27 31 26 30 42 35 31 28 23 19 17 13 8 4 0 3 5 6 6 5 5 5 5 5 6 7 9 9 9 10 10 9
2 3 3 1 2 2 8 11 13 14 14 15 18 22 28 37 39 36 34 32 26 21 16 10 6 3 1 4 5 6 5 5 5 4 4 4 5 6 7 7 8 8 7 9
2 4 4 4 5 5 2 9 15 16 19 18 19 24 25 31 36 32 29 26 25 21 17 13 7 2 3 5 5 4 4 3 3 3 4 4 4 4 6 7 6 8 8 9
Wind_Direction
159 103 190 193 162 147 229 232 290 51 146 119 141 142 182 183 176 191 189 142 174 186 191 198 196 190 178 168 162 177 171 174 172 166 170 172 182 188 192 193 200 196 203 202
33 209 215 131 153 160 198 312 72 51 175 121 117 125 148 172 170 181 210 169 181 178 186 196 196 189 187 173 163 172 175 178 175 171 169 168 184 191 189 196 201 204 201 203
155 219 123 134 175 172 215 202 175 142 116 64 121 59 172 236 162 178 199 206 178 183 183 189 191 188 187 184 178 186 182 178 179 180 179 170 174 181 191 191 188 187 196 201
219 248 189 182 219 151 263 201 202 152 148 161 255 136 247 186 181 179 197 208 187 187 193 188 189 191 192 195 190 196 187 189 190 184 186 184 183 191 191 191 178 193 192 199
242 201 173 206 211 155 232 234 225 128 100 110 352 92 277 158 198 193 187 202 216 180 197 190 193 193 193 198 200 201 191 195 198 197 194 194 215 212 190 175 188 187 173 189
231 250 185 212 232 165 117 70 49 53 66 14 184 174 210 189 190 189 190 206 213 185 193 202 199 195 195 200 204 202 197 199 206 204 201 199 207 203 196 188 180 179 182 189
321 255 238 180 191 142 112 85 39 50 15 224 163 135 325 200 176 191 183 200 204 195 180 192 202 202 201 199 207 208 204 205 208 207 209 205 201 213 205 206 195 189 191 194
190 328 186 174 177 176 183 161 151 168 190 202 184 218 331 63 105 154 187 194 195 217 252 200 205 210 207 206 209 207 207 209 212 208 210 209 214 221 222 205 204 203 202 204
156 269 308 252 184 141 192 160 194 109 112 111 169 136 118 103 95 102 112 146 186 221 240 227 236 212 210 217 213 210 208 209 215 211 213 214 217 208 224 205 205 208 207 210
308 277 277 285 192 87 157 169 99 29 151 167 239 205 161 154 133 131 116 136 150 183 232 254 237 208 226 224 217 214 208 210 213 214 217 215 213 212 216 209 217 208 207 215
74 75 293 1 30 336 349 111 53 111 113 145 155 238 337 154 136 130 134 139 157 174 195 196 212 217 225 226 218 217 206 211 212 214 220 225 218 213 208 208 213 216 224 224
54 131 287 240 302 305 282 58 124 129 174 74 115 313 332 133 140 127 129 132 154 193 192 219 195 189 199 212 216 211 204 210 212 212 224 231 236 230 225 217 220 228 232 233
111 11 7 349 356 357 33 334 76 83 76 138 131 209 49 125 140 140 145 148 151 157 184 220 202 193 206 212 219 211 209 204 208 202 216 229 237 244 238 233 228 235 237 238
102 90 155 159 186 219 305 301 353 128 114 153 173 140 184 174 147 137 140 149 155 148 162 181 203 196 192 196 205 213 229 208 193 154 263 247 246 245 237 234 231 233 235 243
99 143 174 218 233 276 265 313 311 190 174 149 175 172 177 169 158 157 148 142 138 131 135 145 160 186 194 184 183 181 180 174 129 202 246 257 265 253 236 226 230 240 241 240
13 150 187 197 264 12 337 354 358 63 109 77 141 148 159 163 153 156 150 140 130 117 110 111 122 141 160 176 184 179 175 169 181 199 211 216 218 204 198 211 217 234 247 252
84 120 94 111 300 26 6 341 327 321 80 139 155 171 160 157 165 165 155 144 135 129 120 114 107 110 118 131 140 146 152 156 156 174 181 196 199 196 189 237 255 257 256 249
120 85 70 106 34 116 250 327 353 77 64 57 126 148 157 156 162 161 156 144 138 137 130 125 121 112 116 119 122 126 127 131 134 129 123 129 148 171 179 208 235 285 282 258
64 108 78 116 147 290 332 331 10 331 328 127 136 143 147 145 143 149 160 154 146 140 134 129 132 129 132 130 123 121 120 119 121 115 109 103 93 91 122 234 233 248 251 264
49 73 106 95 140 201 231 325 342 247 291 173 150 150 150 148 152 172 170 155 143 143 142 143 142 139 139 130 127 122 116 110 103 96 96 92 80 78 83 80 85 76 128 162
29 14 127 141 200 299 308 309 326 178 246 170 168 160 157 163 155 158 159 155 154 156 151 149 147 150 153 154 166 171 130 133 94 39 263 257 288 303 321 332 325 5 23 360
146 124 170 71 92 243 347 352 285 242 142 161 176 163 161 161 160 158 159 157 158 159 160 163 160 156 148 147 156 203 295 320 298 293 293 288 274 272 277 267 262 257 250 227
22 177 167 164 215 273 322 82 118 208 190 177 177 171 170 155 160 162 160 162 165 166 164 164 169 160 149 115 354 334 332 316 313 310 303 296 287 277 268 256 251 244 245 242
310 50 102 85 348 351 47 86 91 92 134 169 179 177 175 165 165 162 164 165 165 170 171 171 169 168 182 337 332 337 339 331 321 319 313 297 281 273 271 272 269 264 265 264
211 29 137 333 291 127 82 112 120 116 117 144 170 177 178 172 168 174 180 181 178 174 173 176 174 174 315 315 315 323 326 329 330 325 320 299 284 278 276 282 277 270 279 286
243 165 149 208 209 137 62 146 158 144 148 148 153 172 178 180 178 181 178 180 180 183 187 185 197 245 305 297 297 295 305 316 315 309 307 308 307 300 291 286 266 287 285 275